Notices

What's New in latest Release from April 7th, 2021:

- Updated Glossary, including Speed of Maximum Gust, and Total Hourly Precipitation

- Updated national and regional climate services offices contacts and prices information

- Addition of station inventory lists for 1981-2010, 1971-2000, and 1961-1990 Normals.

If you haven't already, please take our survey and provide feedback about our website: https://eccc.sondage-survey.ca/f/LanguageSelection.aspx?s=442ca660-fcf1-47c0-95a9-59707d6fd709

Hourly Data Report for November 20, 2006

TORONTO CITY
ONTARIO

43°40'00.000" N
79°24'00.000" W
112.50 m
6158355
71508
XTO

Download Data

Hourly Data (November 2006)
Hourly Data Report for November 20, 2006
TIME
LST
Temp Definition
°C
Dew Point Definition
°C
Rel Hum Definition
%
Precip. Amount Definition
mm

Wind Dir Definition
10's deg

Wind Spd Definition
km/h
Visibility Definition
km
Stn Press Definition
kPa
Hmdx Definition


Wind Chill Definition


Weather Definition


00:00 0.4 -1.9 85   LegendMM LegendMM   100.58     LegendNANA
01:00 0.6 -1.8 84   LegendMM LegendMM   100.59     LegendNANA
02:00 0.7 -2.5 79   LegendMM LegendMM   100.60     LegendNANA
03:00 0.3 -2.9 79   LegendMM LegendMM   100.64     LegendNANA
04:00 0.5 -3.5 75   LegendMM LegendMM   100.68     LegendNANA
05:00 0.6 -3.4 75   LegendMM LegendMM   100.73     LegendNANA
06:00 0.6 -3.2 76   LegendMM LegendMM   100.77     LegendNANA
07:00 0.6 -3.3 75   LegendMM LegendMM   100.83     LegendNANA
08:00 0.3 -3.7 74   LegendMM LegendMM   100.90     LegendNANA
09:00 0.3 -4.3 71   LegendMM LegendMM   100.94     LegendNANA
10:00 0.1 -4.3 72   LegendMM LegendMM   101.00     LegendNANA
11:00 0.5 -4.2 71   LegendMM LegendMM   101.05     LegendNANA
12:00 0.6 -4.7 68   LegendMM LegendMM   101.05     LegendNANA
13:00 1.0 -4.3 68   LegendMM LegendMM   101.08     LegendNANA
14:00 1.8 -4.2 64   LegendMM LegendMM   101.11     LegendNANA
15:00 1.9 -4.1 64   LegendMM LegendMM   101.13     LegendNANA
16:00 1.5 -3.7 68   LegendMM LegendMM   101.19     LegendNANA
17:00 1.2 -3.7 70   LegendMM LegendMM   101.27     LegendNANA
18:00 1.3 -3.3 71   LegendMM LegendMM   101.34     LegendNANA
19:00 1.5 -3.0 72   LegendMM LegendMM   101.42     LegendNANA
20:00 1.5 -3.1 71   LegendMM LegendMM   101.49     LegendNANA
21:00 1.2 -3.2 72   LegendMM LegendMM   101.53     LegendNANA
22:00 0.8 -3.6 72   LegendMM LegendMM   101.61     LegendNANA
23:00 0.6 -3.7 73   LegendMM LegendMM   101.58     LegendNANA

Notes on Data Quality.

Legend

  • E = Estimated
  • M = Missing
  • NA = Not Available*
  • [empty] = Indicates an unobserved value
Date modified: